Houma, LA

5:50 PM CST on February 17, 2018 (GMT -0600)
Houma-terrebonne

Weather History for KHUM - February, 2014

Change the Weather History Date:

Monday, February 24, 2014

  Actual Average Record
Temperature  
Mean Temperature 64 °F -  
Max Temperature 71 °F 66 °F 82 °F (1933)
Min Temperature 58 °F 46 °F 26 °F (1989)
Growing Degree Days 14 (Base 50)    
Moisture  
Dew Point 60 °F    
Average Humidity 88    
Maximum Humidity 94    
Minimum Humidity 64    
Precipitation  
Precipitation 0.00 in - - ()
Sea Level Pressure  
Sea Level Pressure 30.06 in    
Wind  
Wind Speed 4 mph (ENE)    
Max Wind Speed 12 mph    
Max Gust Speed -    
Visibility 4 miles    
Events Fog    
Averages and records for this station are not official NWS values.
T = Trace of Precipitation, MM = Missing Value Source: NWS Daily Summary

Daily Weather History Graph

Daily Weather History Graph

Search for Another Location

Airport or City:

Trip Planner

Search our weather history database for the weather conditions in past years. The results will help you decide how hot, cold, wet, or windy it might be!

Date:

Astronomy

Feb. 24, 2014 Rise Set
Actual Time 6:33 AM CST 5:58 PM CST
Civil Twilight 6:09 AM CST 6:22 PM CST
Nautical Twilight 5:41 AM CST 6:50 PM CST
Astronomical Twilight 5:14 AM CST 7:18 PM CST
Moon 2:18 AM CST (2/24) 1:13 PM CST (2/24)
Length of Visible Light 12h 13m
Length of Day
11h 25m
Waning Crescent, 28% of the Moon is Illuminated
Feb 24
Waning Crescent
Mar 1
New
Mar 8
First Quarter
Mar 16
Full
Mar 23
Last Quarter

Hourly Weather History & Observations

Time (CST) Temp. Dew Point Humidity Pressure Visibility Wind Dir Wind Speed Gust Speed Precip Events Conditions
12:15 AM 64.9 °F 63.1 °F 94% 30.02 in 2.5 mi NE 4.6 mph - N/A   Mist
12:35 AM 64.9 °F 63.1 °F 94% 30.02 in 2.5 mi NE 3.5 mph - N/A   Mist
12:55 AM 64.8 °F 63.0 °F 94% 30.02 in 2.5 mi East 4.6 mph - N/A   Mist
1:15 AM 64.8 °F 63.0 °F 94% 30.02 in 2.5 mi ENE 4.6 mph - N/A   Mist
1:35 AM 64.8 °F 63.0 °F 94% 30.01 in 2.5 mi East 4.6 mph - N/A   Mist
1:55 AM 64.8 °F 63.0 °F 94% 30.01 in 2.0 mi ENE 4.6 mph - N/A   Mist
2:15 AM 64.6 °F 62.8 °F 94% 30.01 in 4.0 mi ESE 3.5 mph - N/A   Mist
2:35 AM 64.8 °F 63.0 °F 94% 30.00 in 3.0 mi East 3.5 mph - N/A   Mist
2:55 AM 64.8 °F 63.0 °F 94% 30.01 in 3.0 mi Calm Calm - N/A   Mist
3:15 AM 64.8 °F 63.0 °F 94% 30.01 in 3.0 mi Calm Calm - N/A   Mist
3:35 AM 64.6 °F 62.8 °F 94% 30.01 in 3.0 mi Calm Calm - N/A   Mist
3:55 AM 64.4 °F 62.6 °F 94% 30.01 in 3.0 mi Calm Calm - N/A   Mist
4:15 AM 63.9 °F 62.1 °F 94% 30.01 in 2.0 mi Calm Calm - N/A   Mist
4:35 AM 63.3 °F 61.5 °F 94% 30.02 in 2.0 mi NNE 3.5 mph - N/A   Mist
4:55 AM 64.4 °F 62.6 °F 94% 30.03 in 3.0 mi Calm Calm - N/A   Mist
5:50 AM 64.4 °F 62.6 °F 94% 30.04 in 0.5 mi NE 4.6 mph - N/A Fog Fog
7:12 AM 64.4 °F 62.6 °F 94% 30.08 in 1.0 mi NNE 4.6 mph - N/A   Overcast
7:50 AM 64.4 °F 62.6 °F 94% 30.10 in 2.0 mi NNE 4.6 mph - N/A   Overcast
8:50 AM 64.4 °F 62.6 °F 94% 30.11 in 2.0 mi NNE 5.8 mph - N/A   Overcast
9:05 AM 64.4 °F 62.6 °F 94% 30.11 in 3.0 mi NNE 6.9 mph - N/A   Overcast
9:50 AM 66.2 °F 60.8 °F 83% 30.12 in 7.0 mi NE 11.5 mph - N/A   Mostly Cloudy
10:50 AM 66.2 °F 60.8 °F 83% 30.13 in 6.0 mi NNE 11.5 mph - N/A   Mostly Cloudy
11:48 AM 66.2 °F 60.8 °F 83% 30.12 in 5.0 mi NNE 11.5 mph - N/A   Mostly Cloudy
12:50 PM 66.2 °F 60.8 °F 83% 30.10 in 5.0 mi NE 9.2 mph - N/A   Haze
1:50 PM 69.8 °F 60.8 °F 73% 30.09 in 5.0 mi NE 9.2 mph - N/A   Haze
2:49 PM 71.6 °F 59.0 °F 64% 30.08 in 5.0 mi NE 9.2 mph - N/A   Haze
3:50 PM 69.8 °F 59.0 °F 68% - 5.0 mi North - - N/A   Haze
4:49 PM 69.8 °F 57.2 °F 64% 30.08 in 6.0 mi NE 9.2 mph - N/A   Haze
5:49 PM 66.2 °F 57.2 °F 73% 30.08 in 6.0 mi ESE 9.2 mph - N/A   Mostly Cloudy
6:15 PM 65.3 °F 58.3 °F 78% 30.07 in 7.0 mi SE 5.8 mph - N/A   Unknown
6:35 PM 65.1 °F 57.7 °F 77% 30.05 in 7.0 mi ESE 9.2 mph - N/A   Unknown
6:48 PM 64.4 °F 57.2 °F 77% 30.06 in 6.0 mi ESE 9.2 mph - N/A   Mostly Cloudy
6:55 PM 64.6 °F 58.1 °F 79% 30.06 in 10.0 mi SE 9.2 mph - N/A   Unknown
7:15 PM 63.5 °F 58.3 °F 83% 30.06 in 7.0 mi SE 8.1 mph - N/A   Unknown
7:35 PM 62.8 °F 58.1 °F 85% 30.07 in 7.0 mi SE 5.8 mph - N/A   Unknown
7:55 PM 62.1 °F 57.6 °F 85% 30.08 in 7.0 mi ESE 3.5 mph - N/A   Unknown
8:15 PM 61.2 °F 57.0 °F 86% 30.07 in 7.0 mi East 3.5 mph - N/A   Unknown
8:35 PM 60.3 °F 56.5 °F 87% 30.08 in 7.0 mi ESE 4.6 mph - N/A   Unknown
8:55 PM 59.0 °F 56.1 °F 90% 30.09 in 5.0 mi Calm Calm - N/A   Mist
9:15 PM 60.1 °F 57.2 °F 90% 30.09 in 7.0 mi NE 3.5 mph - N/A   Unknown
9:35 PM 59.9 °F 56.8 °F 90% 30.09 in 5.0 mi NE 3.5 mph - N/A   Mist
9:55 PM 58.5 °F 55.6 °F 90% 30.09 in 5.0 mi NNE 3.5 mph - N/A   Mist
10:15 PM 58.1 °F 55.8 °F 92% 30.09 in 5.0 mi NNE 3.5 mph - N/A   Mist
10:35 PM 59.2 °F 56.7 °F 91% 30.09 in 4.0 mi Calm Calm - N/A   Mist
10:55 PM 59.0 °F 56.7 °F 92% 30.08 in 4.0 mi Calm Calm - N/A   Mist
11:15 PM 59.0 °F 56.5 °F 91% 30.07 in 4.0 mi NE 3.5 mph - N/A   Mist
11:35 PM 59.4 °F 57.2 °F 93% 30.07 in 4.0 mi Calm Calm - N/A   Mist
11:55 PM 59.9 °F 57.4 °F 91% 30.07 in 3.0 mi Calm Calm - N/A   Mist